Simultaneous Nadir Overpasses (SNOs) Predictions

Prediction of SNOs between FY3D and NOAA-19 Satellite Orbit:

Table of predicted SNOs for the next 14.0 days since TLE Epoch: 4/8/2023
Index Date (FY3D) Time (FY3D) Lat,Lon (FY3D) SZA (FY3D ) Date (NOAA-19) Time (NOAA-19) Lat,Lon (NOAA-19) SZA (NOAA-19 ) Distance(km) Time Diff (sec)
1 04/20/2023 00:30:19 -76.68, -17.63 114.56 04/20/2023 00:29:05 -76.69, -17.75 114.53 3.21 74
2 04/20/2023 01:21:06 76.70, 149.60 65.46 04/20/2023 01:19:59 76.70, 149.59 65.48 0.49 67
3 04/20/2023 02:11:51 -76.70, -43.10 114.55 04/20/2023 02:11:04 -76.70, -43.20 114.54 2.67 47
4 04/20/2023 03:02:38 76.72, 124.12 65.46 04/20/2023 03:01:58 76.71, 124.14 65.46 1.25 40
5 04/20/2023 03:53:23 -76.72, -68.58 114.55 04/20/2023 03:53:03 -76.70, -68.66 114.56 3.06 20
6 04/20/2023 04:44:10 76.75, 98.64 65.47 04/20/2023 04:43:57 76.72, 98.68 65.44 2.98 13
7 04/20/2023 05:34:55 -76.75, -94.05 114.55 04/20/2023 05:35:01 -76.76, -93.94 114.54 3.10 6
8 04/20/2023 06:25:41 76.73, 73.34 65.42 04/20/2023 06:25:56 76.73, 73.22 65.43 3.14 15
9 04/20/2023 07:16:27 -76.77,-119.53 114.54 04/20/2023 07:17:00 -76.77,-119.39 114.56 3.55 33
10 04/20/2023 08:07:13 76.75, 47.87 65.42 04/20/2023 08:07:55 76.74, 47.77 65.41 2.94 42
11 04/20/2023 08:57:58 -76.75,-144.83 114.59 04/20/2023 08:58:59 -76.77,-144.85 114.58 2.60 61
12 04/20/2023 09:48:45 76.77, 22.39 65.43 04/20/2023 09:49:53 76.79, 22.49 65.43 3.02 68



Historial Predications of SNOs between FY3D and NOAA-19
